Location: Bamobli
(6.6379°N, 10.9396°W)
Time: 20:32:38
(UTC+00:00)

Ariane H10+ - Pass Details

Date: 07 June 2020
Orbit: 169 x 1674 km, 4.0° (Epoch: 06 July)

Event Time Altitude Azimuth Distance (km) Brightness Sun altitude
Exits shadow 04:00:43 36° 108° (ESE) 1,302 4.3 -33.4°
Drops below altitude 10° 04:05:14 10° 96° (E) 2,910 6.5 -32.4°
Enters shadow 05:16:01 -69° 273° (W) 12,284 9.1 -17.1°
Maximum altitude 05:52:54 72° 179° (S) 1,191 3.9 -8.8°
